{"data":{"norad_id":47919,"intl_designator":"2021-021BM","name":"STARLINK-2405","alt_names":[],"object_type":"PAYLOAD","status":"ACTIVE","operator":null,"country":"US","launch_date":"2021-03-14","launch_site_code":"AFETR","launch_vehicle":null,"mission":null,"orbit_class":"UNKNOWN","rcs_meters":null,"size_class":null,"mass_kg":null,"dimensions":null,"purposes":["comms"],"wikipedia_slug":null,"has_3d_model":false,"image_url":null,"decayed_at":null,"tle_current":{"epoch":"2026-05-25T02:52:06.078720Z","epoch_age_seconds":68001,"freshness":"FRESH","line1":"1 47919U 21021BM  26145.11951480  .00006080  00000+0  20748-3 0  9990","line2":"2 47919  53.1591 285.4838 0001205 101.2295 258.8842 15.31709030287757","mean_motion":15.3170903,"eccentricity":0.0001205,"inclination_deg":53.1591,"raan_deg":285.4838,"arg_perigee_deg":101.2295,"mean_anomaly_deg":258.8842,"bstar":0.00020748,"rev_number":28775,"period_min":94.012633718037,"perigee_km":469.88779096345,"apogee_km":471.5383638321,"semimajor_km":6848.8500773978,"source":"CELESTRAK","updated_at":"2026-05-25T13:38:16.638033Z"}}}